Location: Équennes
(49.7375°N, 1.9622°E)
Time: 00:16:14
(UTC+00:00)

Cosmos 1656 - Pass Details

Date: 11 October 2023
Orbit: 797 x 849 km, 71.1° (Epoch: 03 December)

Event Time Altitude Azimuth Distance (km) Brightness Sun altitude
Rises 21:40:09 0° 326° (NW) 3,326 7.7 -40.7°
Reaches altitude 10° 21:42:40 10° 320° (NW) 2,397 6.7 -41.0°
Enters shadow 21:44:16 19° 311° (NW) 1,851 6.0 -41.2°
